Showing default

KUIPER-00189, 68574

Orbit data source: Space-Track

KUIPER-00189, 68574 is a payload satellite owned by Kuiper Systems (US) in LEO that was launched on Sat, 04 Apr 2026 UTC via an ATLAS V 551 launch vehicle from the Air Force Eastern Test Range (AFETR). Payload-class satellites include a variety of spacecraft equipped with specific instruments for various scientific and technological missions. These include communications satellites like Starlink; space stations such as the ISS; scientific satellites like the Hubble; Earth observation satellites from companies like Planet Labs, Umbra, and HawkEye 360; GPS; miniature CubeSats for education and research; and military/defense satellites.

Loading next visibility...
Identifier
68574, 2026-072B
Orbit
LEO
Country
Flag of USUS
Related business
Manufacturer
Kuiper Systems
Mission
Operational spacecraft
Bus & Motor
KUIPER, Unknown motor
Mass
~490 kg wet, ~490 kg dry
Launch date (UTC)
2026-04-04 (2 months ago)
Launch vehicle
ATLAS V 551
Launch site
Air Force Eastern Test Range (AFETR)
Object type
Payload
Rocket body
Debris
Shape & HBR
Unknown shape, 3.4 m
Radar Cross Section
Large (>1 m²)

Expand to show TLE details & history
Last TLE update: 20 hours ago

TLE from 20 hours ago
0 KUIPER-00189
1 68574U 26072B   26149.78698168  .00002752  00000-0  42345-3 0  9999
2 68574  51.8990 279.1641 0000747 258.0069 102.0808 14.76339200  8363
Epoch: 2026-05-29T18:53Z
TLE epoch observation values (Epoch: 2026-05-29T18:53:15.217Z)
Latitude
-0.00001°
Longitude
108.53833°
Altitude
641.759 km
Speed
7.538 km/s
True Right ascension
18h 36m 39s
True Declination
0° 00' 00"
Sunlit
Object was in full shadow at epoch
Visualization orbit readout
Latitude
Unknown
Longitude
Unknown
Altitude
Unknown
Speed
Unknown
Apparent Right ascension
Unknown
Apparent Declination
Unknown
Sunlit
N/A
Visualization observer readout
Local Sidereal Time
00:43:13
Azimuth
Unknown
Elevation
Unknown
Doppler factor
Unknown
Orbital elements
Apogee altitude
641.878 km
Perigee altitude
640.83 km
Semi-major axis
7,019.491 km
Eccentricity
0.00007
Inclination
51.899°
RAAN
279.1641°
Arg. of periapsis
258.0069°
True anomaly
102.08917°
Mean anomaly
102.0808°
Eccentric anomaly
102.08499°
Mean motion
3.6905 °/min
Orbital period
97.55 mins
BSTAR
0.00042345
Loading maneuver chart data...
Computing Atmospheric mass density...
Loading historical data...
Loading historical data...
Loading historical data...
Loading historical data...
Loading historical data...
Loading historical data...
Loading historical data...

Documentation

Showing up to 5 results
|